TimeCDT,TemperatureF,Dew PointF,Humidity,Sea Level PressureIn,VisibilityMPH,Wind Direction,Wind SpeedMPH,Gust SpeedMPH,PrecipitationIn,Events,Conditions,WindDirDegrees,DateUTC
12:46 AM,53.6,51.8,94,29.94,10.0,WNW,4.6,-,N/A,,Mostly Cloudy,300,2013-04-28 05:46:00
12:53 AM,54.0,52.0,93,29.94,10.0,WNW,5.8,-,N/A,,Mostly Cloudy,300,2013-04-28 05:53:00
1:53 AM,55.0,52.0,89,29.95,10.0,WSW,3.5,-,N/A,,Overcast,250,2013-04-28 06:53:00
2:37 AM,55.4,51.8,88,29.93,10.0,West,5.8,-,N/A,,Overcast,270,2013-04-28 07:37:00
2:53 AM,55.0,52.0,89,29.93,10.0,West,3.5,-,N/A,,Overcast,270,2013-04-28 07:53:00
3:53 AM,55.0,51.1,86,29.93,10.0,Calm,Calm,-,N/A,,Overcast,0,2013-04-28 08:53:00
4:53 AM,54.0,51.1,90,29.92,10.0,NW,3.5,-,N/A,,Overcast,310,2013-04-28 09:53:00
5:18 AM,53.6,50.0,88,29.93,10.0,West,4.6,-,N/A,,Overcast,280,2013-04-28 10:18:00
5:36 AM,53.6,50.0,88,29.93,10.0,WNW,4.6,-,N/A,,Overcast,290,2013-04-28 10:36:00
5:53 AM,54.0,50.0,86,29.93,10.0,WNW,3.5,-,N/A,,Overcast,290,2013-04-28 10:53:00
6:39 AM,53.6,50.0,88,29.94,10.0,NW,5.8,-,N/A,,Overcast,310,2013-04-28 11:39:00
6:53 AM,54.0,51.1,90,29.95,10.0,WNW,6.9,-,N/A,,Overcast,300,2013-04-28 11:53:00
7:36 AM,55.4,51.8,88,29.96,10.0,WNW,4.6,-,N/A,,Overcast,300,2013-04-28 12:36:00
8:53 AM,55.9,51.1,84,29.97,10.0,West,5.8,-,N/A,,Overcast,280,2013-04-28 13:53:00
9:53 AM,57.0,51.1,81,29.98,10.0,WNW,5.8,-,N/A,,Overcast,290,2013-04-28 14:53:00
10:53 AM,59.0,51.1,75,29.97,10.0,West,8.1,-,N/A,,Overcast,280,2013-04-28 15:53:00
11:53 AM,61.0,52.0,72,29.97,10.0,WNW,11.5,-,N/A,,Overcast,300,2013-04-28 16:53:00
12:17 PM,62.6,51.8,68,29.97,10.0,WNW,8.1,-,N/A,,Overcast,300,2013-04-28 17:17:00
12:25 PM,62.6,51.8,68,29.96,10.0,NW,10.4,-,N/A,,Overcast,310,2013-04-28 17:25:00
12:53 PM,62.1,52.0,70,29.96,10.0,NNW,8.1,-,N/A,,Overcast,330,2013-04-28 17:53:00
1:53 PM,61.0,52.0,72,29.97,10.0,WNW,4.6,-,N/A,,Overcast,300,2013-04-28 18:53:00
2:24 PM,64.4,51.8,64,29.96,10.0,North,5.8,-,N/A,,Mostly Cloudy,350,2013-04-28 19:24:00
2:53 PM,64.0,52.0,65,29.95,10.0,NW,4.6,-,N/A,,Partly Cloudy,320,2013-04-28 19:53:00
4:53 PM,64.9,51.1,61,29.93,10.0,Calm,Calm,-,N/A,,Overcast,0,2013-04-28 21:53:00
5:53 PM,64.0,53.1,67,29.94,10.0,South,5.8,-,N/A,,Overcast,170,2013-04-28 22:53:00
6:53 PM,63.0,53.1,70,29.93,10.0,SSE,4.6,-,N/A,,Partly Cloudy,150,2013-04-28 23:53:00
7:53 PM,61.0,53.1,75,29.93,10.0,SSE,3.5,-,N/A,,Clear,160,2013-04-29 00:53:00
8:53 PM,59.0,54.0,83,29.94,10.0,South,3.5,-,N/A,,Clear,180,2013-04-29 01:53:00
9:53 PM,57.9,54.0,87,29.95,10.0,South,4.6,-,N/A,,Clear,180,2013-04-29 02:53:00
10:53 PM,55.9,53.1,90,29.95,10.0,SSW,3.5,-,N/A,,Clear,200,2013-04-29 03:53:00
11:53 PM,54.0,52.0,93,29.94,10.0,Calm,Calm,-,N/A,,Clear,0,2013-04-29 04:53:00